Back to catalog

PRISMA

MANGO

AliveScienceSSO
NORAD 36599·PAYLOAD·🇸🇪 Sweden

Launched Jun 15, 2010 from Dombarovsky

Loading…

Next Passes (next 24 hours)

TLE

FreshSource: Space-Track

Epoch: Sep 13, 2026, 12:29 UTC

1 36599U 10028B   26256.52051354  .00000234  00000-0  58632-4 0  9996
2 36599  98.0142  93.0843 0051431 290.5792  68.9895 14.59190948862059

Track PRISMA in real time with AllMySat

Download on the App Store